Location: *
(43.7000°S, 168.7000°W)
Time: 11:34:07
(UTC+00:00)

Cosmos 1340 Rocket - Pass Details

Date: 07 July 2020
Orbit: 528 x 560 km, 81.2° (Epoch: 10 August)

Event Time Altitude Azimuth Distance (km) Brightness Sun altitude
Exits shadow 17:26:05 - 192° (SSW) 2,241 5.6 -14.2°
Reaches altitude 10° 17:27:04 10° 193° (SSW) 1,839 5.2 -14.1°
Maximum altitude 17:31:07 77° 278° (W) 572 2.7 -13.4°
Drops below altitude 10° 17:35:09 10° 4° (N) 1,829 5.8 -12.7°
Sets 17:37:18 0° 5° (N) 2,720 6.7 -12.3°
